Date String (YYYY-MM-DD hh:mm:ss) UTC,Instrument flags,Ambient pressure (hPa),Sample flow (lpm),Bypass flow (lpm),Sample temperature (°C),Ambient temperature (°C),ASC tube jacket temperature (°C),LED temperature (°C),Box temperature (°C),Sample RH (%),Mass concentration (μg/m³),Mass concentration (μg/m³)
DateTimeUTC,F1_M11,P_M11,Q1_M11,Q2_M11,T1_M11,T2_M11,T3_M11,T4_M11,T5_M11,U1_M11,X0_M11,X2_M11
2021-08-16 20:00:00,,0827.8,5.00,0.00,28.8,27.3,00.0,37.8,30.7,17.8,0028.08,0019.96
2021-08-16 20:01:00,,0827.7,4.99,0.00,28.9,27.7,00.0,37.8,30.8,18.7,0027.91,0020.13
2021-08-16 20:02:00,,0827.7,5.00,0.00,29.0,27.9,00.0,37.9,30.9,19.7,0028.36,0020.10
2021-08-16 20:03:00,,0827.7,4.98,0.00,29.0,27.7,00.0,37.9,30.8,19.4,0028.88,0019.93
2021-08-16 20:04:00,,0827.7,5.01,0.00,28.9,26.1,00.0,37.9,30.4,19.2,0028.66,0019.79
2021-08-16 20:05:00,,0827.7,4.99,0.00,28.8,25.7,00.0,37.9,30.2,19.1,0028.87,0019.70
2021-08-16 20:06:00,,0827.7,5.00,0.00,28.7,26.1,00.0,37.8,30.3,19.9,0028.49,0019.54
2021-08-16 20:07:00,,0827.6,5.00,0.00,28.7,26.5,00.0,37.8,30.4,18.8,0028.40,0019.51
2021-08-16 20:08:00,,0827.6,5.01,0.00,28.8,26.9,00.0,37.8,30.6,19.4,0027.60,0019.52
2021-08-16 20:09:00,,0827.6,4.99,0.00,28.8,27.3,00.0,37.8,30.7,18.5,0027.37,0019.49
2021-08-16 20:10:00,,0827.6,5.01,0.00,28.9,27.6,00.0,37.8,30.8,18.9,0027.21,0019.47
2021-08-16 20:11:00,,0827.6,5.00,0.00,29.0,27.9,00.0,37.9,30.9,18.7,0027.04,0019.38
2021-08-16 20:12:00,,0827.6,4.98,0.00,29.0,28.1,00.0,37.9,31.0,18.5,0026.88,0019.35
2021-08-16 20:13:00,,0827.5,5.02,0.00,29.0,27.2,00.0,37.9,30.7,18.8,0027.03,0019.41
2021-08-16 20:14:00,,0827.5,5.00,0.00,28.9,25.8,00.0,37.9,30.3,18.6,0026.85,0019.55
2021-08-16 20:15:00,,0827.7,4.99,0.00,28.8,26.0,00.0,37.9,30.3,18.8,0026.94,0019.67
2021-08-16 20:16:00,,0827.5,5.00,0.00,28.8,26.4,00.0,37.9,30.5,19.2,0026.64,0019.77
2021-08-16 20:17:00,,0827.5,4.99,0.00,28.8,26.7,00.0,37.9,30.6,18.9,0026.87,0019.86
2021-08-16 20:18:00,,0827.5,5.01,0.00,28.8,27.1,00.0,37.9,30.7,19.3,0027.58,0019.97
2021-08-16 20:19:00,,0827.5,4.99,0.00,28.9,27.5,00.0,37.9,30.8,19.6,0027.83,0019.98
2021-08-16 20:20:00,,0827.5,5.00,0.00,29.0,27.8,00.0,37.9,30.9,19.3,0027.96,0019.97
2021-08-16 20:21:00,,0827.5,5.00,0.00,29.0,27.7,00.0,37.9,30.9,19.5,0028.13,0019.96
2021-08-16 20:22:00,,0827.5,5.00,0.00,29.0,26.3,00.0,37.9,30.5,19.7,0028.21,0019.93
2021-08-16 20:23:00,,0827.5,5.01,0.00,28.8,25.6,00.0,37.9,30.2,19.8,0028.70,0019.96
2021-08-16 20:24:00,,0827.4,5.00,0.00,28.8,26.1,00.0,37.9,30.3,19.7,0028.28,0019.92
2021-08-16 20:25:00,,0827.5,4.99,0.00,28.8,26.5,00.0,37.9,30.5,19.4,0027.62,0019.84
2021-08-16 20:26:00,,0827.5,5.00,0.00,28.8,26.9,00.0,37.9,30.6,19.6,0026.78,0019.75
2021-08-16 20:27:00,,0827.4,5.01,0.00,28.9,27.3,00.0,37.9,30.7,20.1,0026.58,0019.68
2021-08-16 20:28:00,,0827.4,5.00,0.00,28.9,27.6,00.0,37.9,30.8,19.6,0026.46,0019.61
2021-08-16 20:29:00,,0827.4,4.99,0.00,29.0,27.9,00.0,37.9,30.9,19.3,0026.38,0019.56
2021-08-16 20:30:00,,0827.4,5.01,0.00,29.0,27.1,00.0,37.9,30.7,19.4,0026.19,0019.51
2021-08-16 20:31:00,,0827.4,5.00,0.00,28.9,25.7,00.0,37.9,30.3,19.8,0026.05,0019.50
2021-08-16 20:32:00,,0827.4,5.00,0.00,28.8,25.8,00.0,37.9,30.2,19.6,0026.38,0019.48
2021-08-16 20:33:00,,0827.3,5.01,0.00,28.8,26.3,00.0,37.9,30.4,19.7,0026.25,0019.47
2021-08-16 20:34:00,,0827.4,4.99,0.00,28.8,26.7,00.0,37.9,30.5,20.1,0025.72,0019.47
2021-08-16 20:35:00,,0827.3,5.01,0.00,28.8,27.1,00.0,37.8,30.6,19.6,0026.14,0019.46
2021-08-16 20:36:00,,0827.3,4.99,0.00,28.9,27.5,00.0,37.9,30.8,19.7,0026.30,0019.49
2021-08-16 20:37:00,,0827.3,4.99,0.00,28.9,27.8,00.0,37.9,30.9,19.6,0026.42,0019.53
2021-08-16 20:38:00,,0827.4,5.01,0.00,29.0,28.0,00.0,37.9,31.0,20.5,0026.56,0019.54
2021-08-16 20:39:00,,0827.3,5.00,0.00,29.0,27.3,00.0,37.9,30.7,19.9,0027.10,0019.57
2021-08-16 20:40:00,,0827.2,5.00,0.00,28.9,25.8,00.0,37.9,30.3,19.2,0026.74,0019.55
2021-08-16 20:41:00,,0827.2,5.00,0.00,28.8,25.8,00.0,37.9,30.3,19.4,0026.87,0019.62
2021-08-16 20:42:00,,0827.2,5.00,0.00,28.8,26.3,00.0,37.9,30.4,19.8,0027.21,0019.67
2021-08-16 20:43:00,,0827.2,5.01,0.00,28.8,26.7,00.0,37.9,30.5,20.1,0026.85,0019.68
2021-08-16 20:44:00,,0827.2,4.99,0.00,28.8,27.0,00.0,37.9,30.6,19.5,0027.14,0019.62
2021-08-16 20:45:00,,0827.2,4.99,0.00,28.9,27.4,00.0,37.9,30.8,19.4,0027.22,0019.51
2021-08-16 20:46:00,,0827.2,5.00,0.00,29.0,27.7,00.0,37.9,30.9,19.5,0027.35,0019.47
2021-08-16 20:47:00,,0827.2,5.00,0.00,29.0,27.8,00.0,37.9,30.9,19.7,0027.94,0019.34
2021-08-16 20:48:00,,0827.2,5.00,0.00,29.0,26.4,00.0,37.9,30.4,19.9,0029.76,0019.26
2021-08-16 20:49:00,,0827.1,5.01,0.00,28.8,25.6,00.0,37.9,30.2,19.3,0030.31,0019.17
2021-08-16 20:50:00,,0827.1,5.00,0.00,28.8,26.0,00.0,37.9,30.3,19.7,0029.49,0019.06
2021-08-16 20:51:00,,0827.2,5.00,0.00,28.7,26.4,00.0,37.8,30.4,19.9,0029.40,0018.95
2021-08-16 20:52:00,,0827.1,5.00,0.00,28.8,26.8,00.0,37.8,30.5,19.9,0029.59,0018.88
2021-08-16 20:53:00,,0827.2,5.00,0.00,28.8,27.2,00.0,37.9,30.7,19.6,0029.18,0018.77
2021-08-16 20:54:00,,0827.2,4.99,0.00,28.9,27.5,00.0,37.9,30.8,19.7,0029.25,0018.70
2021-08-16 20:55:00,,0827.1,5.00,0.00,28.9,27.6,00.0,37.9,30.8,19.5,0028.93,0018.67
2021-08-16 20:56:00,,0827.0,5.00,0.00,28.9,26.3,00.0,37.9,30.4,19.6,0029.32,0018.70
2021-08-16 20:57:00,,0827.4,5.02,0.00,28.8,25.5,00.0,37.9,30.2,19.9,0028.92,0018.73
2021-08-16 20:58:00,,0827.0,5.00,0.00,28.7,25.9,00.0,37.8,30.3,19.5,0028.41,0018.81
2021-08-16 20:59:00,,0827.0,5.00,0.00,28.7,26.3,00.0,37.8,30.3,19.3,0026.53,0018.80
